WZZ5ZY LZKZ-LZIB

Flight info

Callsign WZZ5ZY
Flight time 0h 36m
Altitude 28000
Route TAKOS DCT KALIF DCT SLC/N0398F240 N190 NIT
Aircraft A320/M-SDE3FGHIRWY/LB1

Departure

Time 2026-04-29 19:07
Airport Košice International Airport (LZKZ)

Arrival

Time 2026-04-29 19:43
Airport M. R. Štefánik Airport (LZIB)
Time Latitude Longitude Altitude Speed Heading
2026-04-29 18:44 48.67330 21.23845 753 ft 0 kts 233°
2026-04-29 18:45 48.67330 21.23846 758 ft 0 kts 233°
2026-04-29 18:59 48.67329 21.23845 757 ft 0 kts 230°
2026-04-29 18:59 48.67327 21.23844 757 ft 0 kts 212°
2026-04-29 19:00 48.67317 21.23843 755 ft 2 kts 183°
2026-04-29 19:00 48.67308 21.23860 757 ft 3 kts 117°
2026-04-29 19:00 48.67305 21.23901 753 ft 6 kts 94°
2026-04-29 19:00 48.67295 21.23981 757 ft 10 kts 103°
2026-04-29 19:01 48.67279 21.24089 756 ft 11 kts 103°
2026-04-29 19:01 48.67258 21.24219 755 ft 14 kts 103°
2026-04-29 19:01 48.67234 21.24379 758 ft 17 kts 103°
2026-04-29 19:01 48.67206 21.24560 758 ft 18 kts 103°
2026-04-29 19:02 48.67170 21.24737 752 ft 17 kts 136°
2026-04-29 19:02 48.67098 21.24740 757 ft 16 kts 192°
2026-04-29 19:02 48.66948 21.24689 753 ft 18 kts 193°
2026-04-29 19:02 48.66823 21.24645 757 ft 19 kts 192°
2026-04-29 19:03 48.66687 21.24599 757 ft 22 kts 193°
2026-04-29 19:03 48.66528 21.24543 757 ft 25 kts 193°
2026-04-29 19:03 48.66350 21.24481 755 ft 28 kts 193°
2026-04-29 19:03 48.66155 21.24413 757 ft 30 kts 193°
2026-04-29 19:04 48.65948 21.24339 754 ft 31 kts 193°
2026-04-29 19:04 48.65729 21.24262 752 ft 34 kts 193°
2026-04-29 19:04 48.65516 21.24188 757 ft 30 kts 193°
2026-04-29 19:04 48.65341 21.24128 756 ft 22 kts 193°
2026-04-29 19:05 48.65187 21.24075 757 ft 21 kts 193°
2026-04-29 19:05 48.65036 21.24023 757 ft 22 kts 192°
2026-04-29 19:05 48.64910 21.23917 755 ft 20 kts 242°
2026-04-29 19:05 48.64924 21.23744 752 ft 17 kts 308°
2026-04-29 19:06 48.64975 21.23661 755 ft 8 kts 337°
2026-04-29 19:06 48.64995 21.23663 755 ft 0 kts 11°
2026-04-29 19:06 48.65313 21.23772 753 ft 80 kts 13°
2026-04-29 19:07 48.66041 21.24025 757 ft 132 kts 13°
2026-04-29 19:07 48.66703 21.24253 855 ft 152 kts 13°
2026-04-29 19:07 48.68076 21.24740 1728 ft 152 kts 13°
2026-04-29 19:07 48.69100 21.25095 2493 ft 151 kts 13°
2026-04-29 19:08 48.70182 21.25478 2890 ft 169 kts 15°
2026-04-29 19:08 48.71400 21.25919 3315 ft 187 kts 15°
2026-04-29 19:08 48.72672 21.26381 4168 ft 188 kts 15°
2026-04-29 19:08 48.73952 21.26838 5008 ft 191 kts 15°
2026-04-29 19:09 48.75262 21.27294 5782 ft 195 kts 14°
2026-04-29 19:09 48.76621 21.27528 6513 ft 204 kts 351°
2026-04-29 19:09 48.77861 21.26380 7098 ft 225 kts 311°
2026-04-29 19:09 48.78565 21.24104 7537 ft 253 kts 290°
2026-04-29 19:10 48.78985 21.21404 8078 ft 271 kts 284°
2026-04-29 19:10 48.79312 21.18557 8929 ft 276 kts 282°
2026-04-29 19:10 48.79637 21.15688 9867 ft 277 kts 283°
2026-04-29 19:10 48.79995 21.12763 10467 ft 291 kts 282°
2026-04-29 19:11 48.80106 21.09575 10720 ft 317 kts 266°
2026-04-29 19:11 48.79511 21.06283 11305 ft 330 kts 250°
2026-04-29 19:11 48.78649 21.03045 12062 ft 333 kts 251°
2026-04-29 19:11 48.77789 20.99779 12846 ft 335 kts 251°
2026-04-29 19:12 48.76925 20.96472 13602 ft 338 kts 251°
2026-04-29 19:12 48.76058 20.93157 14308 ft 340 kts 251°
2026-04-29 19:12 48.75179 20.89812 14983 ft 342 kts 251°
2026-04-29 19:12 48.74594 20.87590 15406 ft 344 kts 251°
2026-04-29 19:13 48.73397 20.83081 16276 ft 346 kts 251°
2026-04-29 19:13 48.72499 20.79711 17062 ft 344 kts 252°
2026-04-29 19:13 48.71604 20.76349 17765 ft 345 kts 252°
2026-04-29 19:13 48.70707 20.72973 18402 ft 346 kts 252°
2026-04-29 19:14 48.69805 20.69580 19012 ft 348 kts 252°
2026-04-29 19:14 48.68896 20.66173 19611 ft 350 kts 252°
2026-04-29 19:14 48.67981 20.62750 20253 ft 352 kts 252°
2026-04-29 19:14 48.67064 20.59314 20905 ft 353 kts 252°
2026-04-29 19:15 48.66153 20.55909 21466 ft 354 kts 253°
2026-04-29 19:15 48.65224 20.52450 22036 ft 356 kts 253°
2026-04-29 19:15 48.64276 20.48934 22603 ft 357 kts 253°
2026-04-29 19:15 48.63347 20.45492 23134 ft 359 kts 253°
2026-04-29 19:16 48.62386 20.41942 23654 ft 361 kts 253°
2026-04-29 19:16 48.61432 20.38422 24148 ft 363 kts 253°
2026-04-29 19:16 48.60485 20.34922 24558 ft 366 kts 253°
2026-04-29 19:16 48.59518 20.31345 24832 ft 370 kts 253°
2026-04-29 19:17 48.58563 20.27721 25286 ft 370 kts 256°
2026-04-29 19:17 48.57950 20.23973 25685 ft 367 kts 265°
2026-04-29 19:17 48.57548 20.20152 26065 ft 370 kts 265°
2026-04-29 19:17 48.57138 20.16299 26433 ft 373 kts 264°
2026-04-29 19:18 48.56723 20.12417 26807 ft 376 kts 264°
2026-04-29 19:18 48.56443 20.09823 27045 ft 378 kts 264°
2026-04-29 19:18 48.55867 20.04554 27520 ft 382 kts 264°
2026-04-29 19:18 48.55430 20.00591 27880 ft 385 kts 264°
2026-04-29 19:19 48.54988 19.96568 28229 ft 389 kts 264°
2026-04-29 19:19 48.54102 19.88606 28311 ft 381 kts 264°
2026-04-29 19:20 48.53229 19.80729 28309 ft 382 kts 265°
2026-04-29 19:20 48.52351 19.72782 28303 ft 385 kts 265°
2026-04-29 19:21 48.51455 19.64822 28303 ft 385 kts 264°
2026-04-29 19:21 48.50550 19.56866 28256 ft 384 kts 264°
2026-04-29 19:22 48.49653 19.48976 28310 ft 381 kts 264°
2026-04-29 19:22 48.48754 19.41118 28317 ft 380 kts 264°
2026-04-29 19:23 48.47851 19.33280 28313 ft 379 kts 264°
2026-04-29 19:23 48.46944 19.25459 28226 ft 376 kts 264°
2026-04-29 19:23 48.46345 19.21649 27760 ft 376 kts 254°
2026-04-29 19:24 48.45233 19.18080 27246 ft 375 kts 249°
2026-04-29 19:24 48.44067 19.14583 26755 ft 372 kts 249°
2026-04-29 19:24 48.42898 19.11128 26275 ft 368 kts 249°
2026-04-29 19:24 48.41738 19.07712 25825 ft 364 kts 249°
2026-04-29 19:25 48.40591 19.04330 25375 ft 361 kts 249°
2026-04-29 19:25 48.39456 19.00979 24940 ft 357 kts 249°
2026-04-29 19:25 48.38336 18.97667 24483 ft 354 kts 249°
2026-04-29 19:25 48.37229 18.94391 24112 ft 349 kts 249°
2026-04-29 19:26 48.36136 18.91158 23730 ft 345 kts 249°
2026-04-29 19:26 48.35054 18.87963 23211 ft 342 kts 249°
2026-04-29 19:26 48.33979 18.84793 22676 ft 339 kts 249°
2026-04-29 19:26 48.32924 18.81688 22139 ft 337 kts 249°
2026-04-29 19:27 48.31857 18.78559 21616 ft 335 kts 249°
2026-04-29 19:27 48.30798 18.75450 21073 ft 334 kts 249°
2026-04-29 19:27 48.29742 18.72344 20527 ft 333 kts 249°
2026-04-29 19:27 48.28688 18.69249 20008 ft 332 kts 249°
2026-04-29 19:28 48.27637 18.66173 19511 ft 331 kts 249°
2026-04-29 19:28 48.26588 18.63111 19023 ft 329 kts 249°
2026-04-29 19:28 48.25542 18.60064 18537 ft 327 kts 249°
2026-04-29 19:28 48.24502 18.57039 17973 ft 326 kts 249°
2026-04-29 19:29 48.23465 18.54026 17419 ft 325 kts 248°
2026-04-29 19:29 48.22426 18.51014 16849 ft 324 kts 248°
2026-04-29 19:29 48.21389 18.48013 16313 ft 323 kts 248°
2026-04-29 19:29 48.20362 18.45026 15798 ft 322 kts 248°
2026-04-29 19:30 48.19336 18.42044 15314 ft 321 kts 248°
2026-04-29 19:30 48.18316 18.39083 14852 ft 320 kts 248°
2026-04-29 19:30 48.17293 18.36125 14374 ft 318 kts 248°
2026-04-29 19:30 48.16276 18.33191 13909 ft 317 kts 247°
2026-04-29 19:31 48.15258 18.30259 13410 ft 316 kts 247°
2026-04-29 19:31 48.14660 18.28289 13081 ft 313 kts 252°
2026-04-29 19:31 48.13943 18.24130 12423 ft 308 kts 261°
2026-04-29 19:31 48.13660 18.22053 12112 ft 307 kts 261°
2026-04-29 19:32 48.13229 18.18917 11624 ft 308 kts 262°
2026-04-29 19:32 48.12796 18.15776 11112 ft 310 kts 261°
2026-04-29 19:32 48.12358 18.12617 10651 ft 310 kts 261°
2026-04-29 19:32 48.11922 18.09464 10242 ft 309 kts 261°
2026-04-29 19:33 48.11487 18.06316 10125 ft 310 kts 261°
2026-04-29 19:33 48.11052 18.03154 9975 ft 308 kts 261°
2026-04-29 19:33 48.10627 18.00105 10003 ft 291 kts 261°
2026-04-29 19:33 48.10219 17.97192 9978 ft 283 kts 261°
2026-04-29 19:34 48.09820 17.94355 10000 ft 273 kts 261°
2026-04-29 19:34 48.09438 17.91640 9992 ft 261 kts 262°
2026-04-29 19:34 48.09067 17.88997 9986 ft 256 kts 262°
2026-04-29 19:34 48.08709 17.86441 10003 ft 249 kts 262°
2026-04-29 19:35 48.08356 17.83911 9982 ft 248 kts 262°
2026-04-29 19:35 48.08004 17.81403 9704 ft 246 kts 262°
2026-04-29 19:35 48.07654 17.78896 9418 ft 246 kts 262°
2026-04-29 19:35 48.07305 17.76398 9130 ft 245 kts 262°
2026-04-29 19:36 48.06957 17.73923 8690 ft 243 kts 261°
2026-04-29 19:36 48.06609 17.71454 8209 ft 242 kts 261°
2026-04-29 19:36 48.06262 17.69003 7716 ft 241 kts 262°
2026-04-29 19:36 48.05916 17.66557 7227 ft 241 kts 262°
2026-04-29 19:37 48.05567 17.64105 6751 ft 242 kts 262°
2026-04-29 19:37 48.05337 17.62480 6566 ft 241 kts 262°
2026-04-29 19:37 48.04870 17.59198 6165 ft 241 kts 262°
2026-04-29 19:37 48.04520 17.56752 5847 ft 241 kts 261°
2026-04-29 19:38 48.04167 17.54302 5546 ft 241 kts 261°
2026-04-29 19:38 48.03819 17.51863 5153 ft 239 kts 262°
2026-04-29 19:38 48.03555 17.49441 4745 ft 234 kts 266°
2026-04-29 19:38 48.03473 17.47047 4368 ft 226 kts 277°
2026-04-29 19:39 48.03702 17.44762 4054 ft 221 kts 290°
2026-04-29 19:39 48.04234 17.42654 3860 ft 213 kts 302°
2026-04-29 19:39 48.04985 17.40780 3632 ft 208 kts 310°
2026-04-29 19:39 48.05803 17.39005 3381 ft 207 kts 311°
2026-04-29 19:40 48.06638 17.37268 3113 ft 205 kts 315°
2026-04-29 19:40 48.07550 17.35652 2831 ft 201 kts 319°
2026-04-29 19:40 48.08502 17.34176 2561 ft 192 kts 322°
2026-04-29 19:40 48.09417 17.32831 2319 ft 177 kts 323°
2026-04-29 19:41 48.10283 17.31574 1985 ft 170 kts 324°
2026-04-29 19:41 48.11101 17.30370 1719 ft 161 kts 321°
2026-04-29 19:41 48.11838 17.29182 1496 ft 148 kts 321°
2026-04-29 19:41 48.12534 17.28136 1269 ft 137 kts 322°
2026-04-29 19:42 48.13198 17.27144 1090 ft 133 kts 317°
2026-04-29 19:42 48.13623 17.26487 1000 ft 131 kts 320°
2026-04-29 19:42 48.14468 17.25185 810 ft 131 kts 319°
2026-04-29 19:42 48.15113 17.24199 634 ft 130 kts 319°
2026-04-29 19:43 48.15739 17.23235 460 ft 131 kts 319°
2026-04-29 19:43 48.16318 17.22343 428 ft 99 kts 314°
2026-04-29 19:43 48.16687 17.21770 424 ft 60 kts 314°
2026-04-29 19:43 48.16930 17.21392 419 ft 42 kts 314°
2026-04-29 19:44 48.17103 17.21121 425 ft 25 kts 314°
2026-04-29 19:44 48.17111 17.20993 425 ft 14 kts 228°
2026-04-29 19:44 48.17043 17.20887 426 ft 12 kts 226°
2026-04-29 19:44 48.17034 17.20873 427 ft 0 kts 226°
2026-04-29 19:45 48.17034 17.20867 421 ft 1 kts 260°
2026-04-29 19:45 48.17056 17.20821 417 ft 10 kts 313°
2026-04-29 19:45 48.17118 17.20722 425 ft 15 kts 311°
2026-04-29 19:46 48.17169 17.20590 427 ft 15 kts 252°
2026-04-29 19:46 48.17093 17.20466 424 ft 17 kts 224°
2026-04-29 19:46 48.17004 17.20338 426 ft 18 kts 223°
2026-04-29 19:46 48.16984 17.20246 426 ft 9 kts 305°
2026-04-29 19:47 48.17004 17.20214 419 ft 2 kts 313°
2026-04-29 19:47 48.17005 17.20213 419 ft 0 kts 313°